| time (UTC) | temp F | wind direction | speed knots | gust knots | rain 1hr in | rain 24hr in | rain mn in | humidity % | barometer mb |
| 20260510190550 | 88 | 140 | 0.9 | 2.6 | 0.00 | 0.00 | 0.00 | 32 | 1014.8 |
| 20260510190100 | 87 | 197 | 0.0 | 8.7 | 0.00 | 0.00 | 0.00 | 35 | 1014.9 |
| 20260510185550 | 86 | 140 | 0.0 | 8.7 | 0.00 | 0.00 | 0.00 | 34 | 1014.9 |
| 20260510185050 | 86 | 269 | 0.9 | 6.1 | 0.00 | 0.00 | 0.00 | 37 | 1015.0 |
| 20260510184557 | 86 | 0 | 0.9 | 2.6 | 0.00 | 0.00 | 0.00 | 35 | 1015.0 |
| 20260510184052 | 85 | 268 | 0.0 | 3.5 | 0.00 | 0.00 | 0.00 | 36 | 1015.2 |
| 20260510183551 | 85 | 280 | 0.9 | 3.5 | 0.00 | 0.00 | 0.00 | 35 | 1015.3 |
| 20260510183052 | 85 | 285 | 1.7 | 3.5 | 0.00 | 0.00 | 0.00 | 35 | 1015.4 |
| 20260510182550 | 85 | 126 | 0.9 | 3.5 | 0.00 | 0.00 | 0.00 | 35 | 1015.5 |
| 20260510182050 | 85 | 125 | 0.9 | 2.6 | 0.00 | 0.00 | 0.00 | 36 | 1015.5 |
| 20260510181601 | 85 | 0 | 0.0 | 2.6 | 0.00 | 0.00 | 0.00 | 34 | 1015.5 |
| 20260510181051 | 84 | 339 | 0.9 | 3.5 | 0.00 | 0.00 | 0.00 | 34 | 1015.6 |
| 20260510180551 | 85 | 83 | 1.7 | 3.5 | 0.00 | 0.00 | 0.00 | 33 | 1015.5 |
| 20260510180058 | 85 | 0 | 0.9 | 2.6 | 0.00 | 0.00 | 0.00 | 35 | 1015.5 |
| 20260510175550 | 85 | 168 | 0.9 | 5.2 | 0.00 | 0.00 | 0.00 | 35 | 1015.6 |
| 20260510175050 | 84 | 290 | 0.9 | 7.0 | 0.00 | 0.00 | 0.00 | 37 | 1015.7 |
| 20260510174558 | 83 | 284 | 1.7 | 9.6 | 0.00 | 0.00 | 0.00 | 37 | 1015.8 |
| 20260510174055 | 84 | 255 | 3.5 | 9.6 | 0.00 | 0.00 | 0.00 | 35 | 1015.7 |
| 20260510173549 | 85 | 254 | 0.9 | 3.5 | 0.00 | 0.00 | 0.00 | 35 | 1015.6 |
| 20260510173056 | 84 | 0 | 0.0 | 3.5 | 0.00 | 0.00 | 0.00 | 41 | 1015.7 |
| 20260510172548 | 82 | 167 | 0.9 | 4.3 | 0.00 | 0.00 | 0.00 | 40 | 1015.8 |
| 20260510172054 | 82 | 336 | 0.9 | 5.2 | 0.00 | 0.00 | 0.00 | 40 | 1015.9 |
| 20260510171559 | 82 | 288 | 0.9 | 5.2 | 0.00 | 0.00 | 0.00 | 39 | 1015.9 |
| 20260510171048 | 83 | 291 | 0.9 | 5.2 | 0.00 | 0.00 | 0.00 | 41 | 1015.9 |
| 20260510170549 | 83 | 246 | 1.7 | 5.2 | 0.00 | 0.00 | 0.00 | 40 | 1015.8 |
| 20260510170121 | 83 | 232 | 1.7 | 4.3 | 0.00 | 0.00 | 0.00 | 40 | 1015.9 |
| 20260510165551 | 83 | 173 | 0.0 | 2.6 | 0.00 | 0.00 | 0.00 | 38 | 1015.9 |
| 20260510165048 | 82 | 27 | 0.0 | 3.5 | 0.00 | 0.00 | 0.00 | 41 | 1015.9 |
| 20260510164604 | 82 | 290 | 0.0 | 3.5 | 0.00 | 0.00 | 0.00 | 43 | 1016.0 |
| 20260510164051 | 82 | 115 | 0.9 | 2.6 | 0.00 | 0.00 | 0.00 | 42 | 1016.1 |
| 20260510163548 | 82 | 47 | 0.0 | 3.5 | 0.00 | 0.00 | 0.00 | 43 | 1016.1 |
| 20260510163053 | 81 | 0 | 0.9 | 3.5 | 0.00 | 0.00 | 0.00 | 45 | 1016.2 |
| 20260510162550 | 82 | 337 | 0.9 | 3.5 | 0.00 | 0.00 | 0.00 | 46 | 1016.1 |
| 20260510162050 | 81 | 247 | 0.9 | 2.6 | 0.00 | 0.00 | 0.00 | 43 | 1016.1 |
| 20260510161554 | 82 | 0 | 0.9 | 2.6 | 0.00 | 0.00 | 0.00 | 46 | 1016.2 |
| 20260510161051 | 81 | 289 | 0.9 | 3.5 | 0.00 | 0.00 | 0.00 | 46 | 1016.2 |
| 20260510160551 | 81 | 25 | 0.0 | 3.5 | 0.00 | 0.00 | 0.00 | 45 | 1016.1 |
| 20260510160054 | 81 | 121 | 0.9 | 3.5 | 0.00 | 0.00 | 0.00 | 45 | 1016.2 |
| 20260510155549 | 80 | 283 | 0.0 | 3.5 | 0.00 | 0.00 | 0.00 | 48 | 1016.3 |
| 20260510155050 | 80 | 257 | 0.0 | 1.7 | 0.00 | 0.00 | 0.00 | 47 | 1016.5 |
| 20260510154553 | 79 | 103 | 0.0 | 2.6 | 0.00 | 0.00 | 0.00 | 45 | 1016.5 |
| 20260510154051 | 79 | 66 | 1.7 | 3.5 | 0.00 | 0.00 | 0.00 | 47 | 1016.5 |
| 20260510153550 | 80 | 5 | 0.9 | 3.5 | 0.00 | 0.00 | 0.00 | 52 | 1016.5 |
| 20260510153058 | 79 | 0 | 0.0 | 2.6 | 0.00 | 0.00 | 0.00 | 51 | 1016.6 |
| 20260510152553 | 79 | 40 | 0.0 | 3.5 | 0.00 | 0.00 | 0.00 | 53 | 1016.5 |
| 20260510152051 | 78 | 0 | 0.9 | 3.5 | 0.00 | 0.00 | 0.00 | 54 | 1016.4 |
| 20260510151556 | 78 | 0 | 1.7 | 4.3 | 0.00 | 0.00 | 0.00 | 52 | 1016.3 |
| 20260510151051 | 78 | 239 | 1.7 | 4.3 | 0.00 | 0.00 | 0.00 | 53 | 1016.3 |
| 20260510150551 | 78 | 244 | 1.7 | 3.5 | 0.00 | 0.00 | 0.00 | 54 | 1016.4 |
| 20260510150058 | 78 | 0 | 0.0 | 3.5 | 0.00 | 0.00 | 0.00 | 55 | 1016.3 |
| 20260510145550 | 78 | 270 | 1.7 | 3.5 | 0.00 | 0.00 | 0.00 | 55 | 1016.2 |
| 20260510145051 | 78 | 0 | 0.0 | 3.5 | 0.00 | 0.00 | 0.00 | 55 | 1016.3 |
| 20260510144552 | 78 | 0 | 0.0 | 3.5 | 0.00 | 0.00 | 0.00 | 58 | 1016.4 |
| 20260510144053 | 77 | 0 | 0.0 | 2.6 | 0.00 | 0.00 | 0.00 | 57 | 1016.3 |
| 20260510143552 | 77 | 132 | 0.9 | 2.6 | 0.00 | 0.00 | 0.00 | 55 | 1016.3 |
| 20260510143055 | 77 | 0 | 0.0 | 1.7 | 0.00 | 0.00 | 0.00 | 59 | 1016.3 |
| 20260510142551 | 77 | 0 | 0.0 | 1.7 | 0.00 | 0.00 | 0.00 | 61 | 1016.3 |
| 20260510142051 | 76 | 0 | 0.0 | 2.6 | 0.00 | 0.00 | 0.00 | 63 | 1016.2 |
| 20260510141553 | 76 | 0 | 0.0 | 2.6 | 0.00 | 0.00 | 0.00 | 64 | 1016.3 |
| 20260510141052 | 75 | 262 | 0.0 | 1.7 | 0.00 | 0.00 | 0.00 | 63 | 1016.3 |
| 20260510140551 | 75 | 44 | 0.0 | 1.7 | 0.00 | 0.00 | 0.00 | 68 | 1016.2 |
| 20260510140056 | 74 | 0 | 0.0 | 3.5 | 0.00 | 0.00 | 0.00 | 69 | 1016.2 |
| 20260510135550 | 73 | 82 | 0.9 | 3.5 | 0.00 | 0.00 | 0.00 | 71 | 1016.4 |
| 20260510135051 | 73 | 0 | 0.0 | 3.5 | 0.00 | 0.00 | 0.00 | 74 | 1016.4 |
| 20260510134556 | 73 | 0 | 0.9 | 3.5 | 0.00 | 0.00 | 0.00 | 73 | 1016.2 |
| 20260510134050 | 73 | 0 | 0.0 | 0.9 | 0.00 | 0.00 | 0.00 | 76 | 1016.2 |
| 20260510133553 | 72 | 0 | 0.0 | 1.7 | 0.00 | 0.00 | 0.00 | 77 | 1016.2 |
| 20260510133055 | 71 | 0 | 0.0 | 3.5 | 0.00 | 0.00 | 0.00 | 78 | 1016.1 |
| 20260510132550 | 71 | 0 | 0.9 | 3.5 | 0.00 | 0.00 | 0.00 | 79 | 1016.2 |
| 20260510132048 | 71 | 0 | 0.0 | 0.9 | 0.00 | 0.00 | 0.00 | 79 | 1016.2 |
| 20260510131559 | 70 | 0 | 0.0 | 2.6 | 0.00 | 0.00 | 0.00 | 79 | 1016.3 |
| 20260510131050 | 70 | 0 | 0.0 | 2.6 | 0.00 | 0.00 | 0.00 | 83 | 1015.9 |
| 20260510130548 | 69 | 240 | 0.0 | 0.0 | 0.00 | 0.00 | 0.00 | 84 | 1016.0 |
| 20260510130058 | 69 | 0 | 0.0 | 0.0 | 0.00 | 0.00 | 0.00 | 87 | 1015.8 |
| 20260510125551 | 68 | 0 | 0.0 | 0.9 | 0.00 | 0.00 | 0.00 | 91 | 1015.7 |
| 20260510125051 | 67 | 0 | 0.0 | 1.7 | 0.00 | 0.00 | 0.00 | 95 | 1015.7 |
| 20260510124605 | 66 | 258 | 0.0 | 2.6 | 0.00 | 0.00 | 0.00 | 96 | 1015.8 |
| 20260510124054 | 65 | 0 | 0.0 | 2.6 | 0.00 | 0.00 | 0.00 | 99 | 1015.8 |
| 20260510123551 | 64 | 0 | 0.9 | 2.6 | 0.00 | 0.00 | 0.00 | 99 | 1015.8 |
| 20260510123058 | 64 | 0 | 0.0 | 1.7 | 0.00 | 0.00 | 0.00 | 100 | 1015.7 |
| 20260510122551 | 63 | 0 | 0.0 | 1.7 | 0.00 | 0.00 | 0.00 | 100 | 1015.6 |
| 20260510122050 | 63 | 0 | 0.0 | 0.0 | 0.00 | 0.00 | 0.00 | 100 | 1015.6 |
| 20260510121559 | 62 | 0 | 0.0 | 0.0 | 0.00 | 0.00 | 0.00 | 100 | 1015.4 |
| 20260510121050 | 62 | 0 | 0.0 | 0.0 | 0.00 | 0.00 | 0.00 | 100 | 1015.5 |
| 20260510120551 | 61 | 0 | 0.0 | 0.0 | 0.00 | 0.00 | 0.00 | 100 | 1015.6 |
| 20260510120054 | 61 | 0 | 0.0 | 0.0 | 0.00 | 0.00 | 0.00 | 100 | 1015.4 |
| 20260510115550 | 61 | 0 | 0.0 | 0.0 | 0.00 | 0.00 | 0.00 | 100 | 1015.4 |
| 20260510115050 | 60 | 0 | 0.0 | 0.0 | 0.00 | 0.00 | 0.00 | 100 | 1015.5 |
| 20260510114552 | 60 | 0 | 0.0 | 0.0 | 0.00 | 0.00 | 0.00 | 100 | 1015.5 |
| 20260510114053 | 60 | 0 | 0.0 | 0.0 | 0.00 | 0.00 | 0.00 | 100 | 1015.3 |
| 20260510113548 | 60 | 0 | 0.0 | 0.0 | 0.00 | 0.00 | 0.00 | 100 | 1015.2 |
| 20260510113053 | 59 | 0 | 0.0 | 0.0 | 0.00 | 0.00 | 0.00 | 100 | 1015.1 |
| 20260510112549 | 59 | 0 | 0.0 | 0.0 | 0.00 | 0.00 | 0.00 | 100 | 1015.0 |
| 20260510112051 | 59 | 0 | 0.0 | 0.0 | 0.00 | 0.00 | 0.00 | 100 | 1015.0 |
| 20260510111555 | 59 | 0 | 0.0 | 0.0 | 0.00 | 0.00 | 0.00 | 99 | 1015.0 |
| 20260510111048 | 58 | 0 | 0.0 | 0.0 | 0.00 | 0.00 | 0.00 | 99 | 1014.9 |
| 20260510110550 | 58 | 0 | 0.0 | 0.0 | 0.00 | 0.00 | 0.00 | 99 | 1014.9 |
| 20260510110053 | 58 | 0 | 0.0 | 0.0 | 0.00 | 0.00 | 0.00 | 99 | 1014.8 |
| 20260510105551 | 58 | 0 | 0.0 | 0.0 | 0.00 | 0.00 | 0.00 | 99 | 1014.6 |
| 20260510105051 | 58 | 0 | 0.0 | 0.0 | 0.00 | 0.00 | 0.00 | 99 | 1014.6 |
| 20260510104557 | 58 | 0 | 0.0 | 0.0 | 0.00 | 0.00 | 0.00 | 99 | 1014.7 |
| 20260510104050 | 58 | 0 | 0.0 | 0.0 | 0.00 | 0.00 | 0.00 | 99 | 1014.6 |
| 20260510103551 | 58 | 0 | 0.0 | 0.0 | 0.00 | 0.00 | 0.00 | 99 | 1014.6 |
| 20260510103056 | 58 | 0 | 0.0 | 0.0 | 0.00 | 0.00 | 0.00 | 99 | 1014.5 |
| 20260510102551 | 58 | 0 | 0.0 | 0.0 | 0.00 | 0.00 | 0.00 | 99 | 1014.3 |
| 20260510102051 | 58 | 0 | 0.0 | 0.0 | 0.00 | 0.00 | 0.00 | 99 | 1014.2 |
| 20260510101551 | 58 | 0 | 0.0 | 0.0 | 0.00 | 0.00 | 0.00 | 99 | 1014.1 |
| 20260510101048 | 58 | 0 | 0.0 | 0.0 | 0.00 | 0.00 | 0.00 | 99 | 1014.0 |
| 20260510100548 | 58 | 0 | 0.0 | 0.0 | 0.00 | 0.00 | 0.00 | 99 | 1013.9 |
| 20260510100101 | 58 | 0 | 0.0 | 0.0 | 0.00 | 0.00 | 0.00 | 99 | 1014.0 |
| 20260510095547 | 58 | 0 | 0.0 | 0.0 | 0.00 | 0.00 | 0.00 | 99 | 1013.7 |
| 20260510095048 | 58 | 0 | 0.0 | 0.0 | 0.00 | 0.00 | 0.00 | 99 | 1013.5 |
| 20260510094553 | 58 | 0 | 0.0 | 0.0 | 0.00 | 0.00 | 0.00 | 99 | 1013.5 |
| 20260510094050 | 58 | 0 | 0.0 | 0.0 | 0.00 | 0.00 | 0.00 | 99 | 1013.4 |
| 20260510093550 | 58 | 0 | 0.0 | 0.0 | 0.00 | 0.00 | 0.00 | 99 | 1013.4 |
| 20260510093101 | 58 | 0 | 0.0 | 0.0 | 0.00 | 0.00 | 0.00 | 99 | 1013.3 |
| 20260510092550 | 58 | 0 | 0.0 | 0.0 | 0.00 | 0.00 | 0.00 | 99 | 1013.4 |
| 20260510092050 | 59 | 0 | 0.0 | 0.0 | 0.00 | 0.00 | 0.00 | 99 | 1013.3 |
| 20260510091556 | 59 | 0 | 0.0 | 0.0 | 0.00 | 0.00 | 0.00 | 99 | 1013.3 |
| 20260510091051 | 59 | 0 | 0.0 | 0.0 | 0.00 | 0.00 | 0.00 | 99 | 1013.2 |
| 20260510090551 | 59 | 0 | 0.0 | 0.0 | 0.00 | 0.00 | 0.00 | 99 | 1013.3 |
| 20260510090057 | 59 | 0 | 0.0 | 0.0 | 0.00 | 0.00 | 0.00 | 99 | 1013.2 |
| 20260510085550 | 58 | 0 | 0.0 | 0.0 | 0.00 | 0.00 | 0.00 | 99 | 1013.2 |
| 20260510085051 | 58 | 0 | 0.0 | 0.0 | 0.00 | 0.00 | 0.00 | 99 | 1013.2 |
| 20260510084553 | 58 | 0 | 0.0 | 0.0 | 0.00 | 0.00 | 0.00 | 99 | 1013.2 |
| 20260510084048 | 59 | 0 | 0.0 | 0.0 | 0.00 | 0.00 | 0.00 | 99 | 1013.1 |
| 20260510083551 | 59 | 0 | 0.0 | 0.0 | 0.00 | 0.00 | 0.00 | 99 | 1013.1 |
| 20260510083309 | 59 | 0 | 0.0 | 0.0 | 0.00 | 0.00 | 0.00 | 99 | 1013.0 |
| 20260510082547 | 59 | 0 | 0.0 | 0.0 | 0.00 | 0.00 | 0.00 | 99 | 1013.0 |
| 20260510082048 | 59 | 0 | 0.0 | 0.0 | 0.00 | 0.00 | 0.00 | 99 | 1012.9 |
| 20260510081553 | 59 | 0 | 0.0 | 0.0 | 0.00 | 0.00 | 0.00 | 99 | 1013.0 |
| 20260510081048 | 59 | 0 | 0.0 | 0.0 | 0.00 | 0.00 | 0.00 | 99 | 1012.9 |
| 20260510080551 | 59 | 0 | 0.0 | 0.0 | 0.00 | 0.00 | 0.00 | 99 | 1012.8 |
| 20260510080058 | 59 | 0 | 0.0 | 0.0 | 0.00 | 0.00 | 0.00 | 99 | 1012.8 |
| 20260510075550 | 59 | 0 | 0.0 | 0.0 | 0.00 | 0.00 | 0.00 | 99 | 1012.7 |
| 20260510075050 | 59 | 0 | 0.0 | 0.0 | 0.00 | 0.00 | 0.00 | 99 | 1012.8 |
| 20260510074556 | 59 | 0 | 0.0 | 0.0 | 0.00 | 0.00 | 0.00 | 99 | 1012.9 |
| 20260510074050 | 59 | 0 | 0.0 | 0.0 | 0.00 | 0.00 | 0.00 | 99 | 1012.9 |
| 20260510073550 | 59 | 0 | 0.0 | 0.0 | 0.00 | 0.00 | 0.00 | 99 | 1012.8 |
| 20260510073105 | 59 | 0 | 0.0 | 0.0 | 0.00 | 0.00 | 0.00 | 99 | 1012.5 |
| 20260510072548 | 59 | 0 | 0.0 | 0.0 | 0.00 | 0.00 | 0.00 | 98 | 1012.5 |
| 20260510072048 | 59 | 0 | 0.0 | 0.0 | 0.00 | 0.00 | 0.00 | 98 | 1012.5 |
| 20260510071552 | 59 | 0 | 0.0 | 0.0 | 0.00 | 0.00 | 0.00 | 98 | 1012.5 |
| 20260510071048 | 59 | 0 | 0.0 | 0.0 | 0.00 | 0.00 | 0.00 | 98 | 1012.5 |
| 20260510070549 | 59 | 0 | 0.0 | 0.0 | 0.00 | 0.00 | 0.00 | 98 | 1012.7 |
| 20260510070051 | 59 | 0 | 0.0 | 0.0 | 0.00 | 0.00 | 0.00 | 98 | 1012.8 |
| 20260510065549 | 59 | 0 | 0.0 | 0.0 | 0.00 | 0.00 | 0.00 | 98 | 1012.8 |
| 20260510065049 | 59 | 0 | 0.0 | 0.0 | 0.00 | 0.00 | 0.00 | 98 | 1012.9 |
| 20260510064558 | 59 | 0 | 0.0 | 0.0 | 0.00 | 0.00 | 0.00 | 98 | 1012.8 |
| 20260510064048 | 59 | 0 | 0.0 | 0.0 | 0.00 | 0.00 | 0.00 | 98 | 1012.8 |
| 20260510063548 | 59 | 0 | 0.0 | 0.0 | 0.00 | 0.00 | 0.00 | 98 | 1012.8 |
| 20260510063054 | 60 | 0 | 0.0 | 0.0 | 0.00 | 0.00 | 0.00 | 98 | 1012.7 |
| 20260510062551 | 60 | 0 | 0.0 | 0.0 | 0.00 | 0.00 | 0.00 | 98 | 1012.5 |
| 20260510062050 | 60 | 0 | 0.0 | 0.0 | 0.00 | 0.00 | 0.00 | 98 | 1012.6 |
| 20260510061555 | 60 | 0 | 0.0 | 0.0 | 0.00 | 0.00 | 0.00 | 98 | 1012.3 |
| 20260510061051 | 60 | 0 | 0.0 | 0.0 | 0.00 | 0.00 | 0.00 | 98 | 1012.7 |
| 20260510060550 | 60 | 0 | 0.0 | 0.0 | 0.00 | 0.00 | 0.00 | 98 | 1012.6 |
| 20260510060055 | 60 | 0 | 0.0 | 0.0 | 0.00 | 0.00 | 0.00 | 98 | 1012.7 |
| 20260510055550 | 60 | 0 | 0.0 | 0.0 | 0.00 | 0.00 | 0.00 | 98 | 1012.6 |
| 20260510055048 | 60 | 0 | 0.0 | 0.0 | 0.00 | 0.00 | 0.00 | 98 | 1012.7 |
| 20260510054554 | 60 | 0 | 0.0 | 0.0 | 0.00 | 0.00 | 0.00 | 98 | 1012.8 |
| 20260510054049 | 60 | 0 | 0.0 | 0.0 | 0.00 | 0.00 | 0.00 | 98 | 1012.7 |
| 20260510053548 | 60 | 0 | 0.0 | 0.0 | 0.00 | 0.00 | 0.00 | 98 | 1012.8 |
| 20260510053059 | 60 | 0 | 0.0 | 0.0 | 0.00 | 0.00 | 0.00 | 98 | 1013.0 |
| 20260510052548 | 61 | 0 | 0.0 | 0.0 | 0.00 | 0.00 | 0.00 | 98 | 1013.2 |
| 20260510052048 | 61 | 0 | 0.0 | 0.0 | 0.00 | 0.00 | 0.00 | 98 | 1013.1 |
| 20260510051602 | 61 | 0 | 0.0 | 0.0 | 0.00 | 0.00 | 0.00 | 97 | 1013.2 |
| 20260510051047 | 61 | 0 | 0.0 | 0.0 | 0.00 | 0.00 | 0.00 | 97 | 1013.2 |
| 20260510050551 | 61 | 0 | 0.0 | 0.0 | 0.00 | 0.00 | 0.00 | 97 | 1013.1 |
| 20260510050057 | 61 | 0 | 0.0 | 0.0 | 0.00 | 0.00 | 0.00 | 97 | 1013.0 |
| 20260510045547 | 61 | 0 | 0.0 | 0.0 | 0.00 | 0.00 | 0.00 | 98 | 1013.1 |
| 20260510045047 | 61 | 0 | 0.0 | 0.0 | 0.00 | 0.00 | 0.00 | 98 | 1013.2 |
| 20260510044557 | 61 | 0 | 0.0 | 0.0 | 0.00 | 0.00 | 0.00 | 98 | 1013.4 |
| 20260510044050 | 61 | 0 | 0.0 | 0.0 | 0.00 | 0.00 | 0.00 | 98 | 1013.2 |
| 20260510043552 | 61 | 0 | 0.0 | 0.0 | 0.00 | 0.00 | 0.00 | 98 | 1013.2 |
| 20260510043059 | 61 | 0 | 0.0 | 0.0 | 0.00 | 0.00 | 0.00 | 97 | 1013.2 |
| 20260510042550 | 61 | 0 | 0.0 | 0.0 | 0.00 | 0.00 | 0.00 | 97 | 1013.2 |
| 20260510042048 | 61 | 0 | 0.0 | 0.0 | 0.00 | 0.00 | 0.00 | 97 | 1013.3 |
| 20260510041556 | 61 | 0 | 0.0 | 0.0 | 0.00 | 0.00 | 0.00 | 97 | 1013.2 |
| 20260510041048 | 61 | 0 | 0.0 | 0.0 | 0.00 | 0.00 | 0.00 | 97 | 1013.3 |
| 20260510040551 | 61 | 0 | 0.0 | 0.0 | 0.00 | 0.00 | 0.00 | 97 | 1013.2 |
| 20260510040058 | 62 | 0 | 0.0 | 0.0 | 0.00 | 0.00 | 0.00 | 97 | 1013.1 |
| 20260510035548 | 61 | 0 | 0.0 | 0.0 | 0.00 | 0.00 | 0.00 | 97 | 1013.2 |
| 20260510035050 | 62 | 0 | 0.0 | 0.0 | 0.00 | 0.00 | 0.00 | 96 | 1013.1 |
| 20260510034554 | 62 | 0 | 0.0 | 0.0 | 0.00 | 0.00 | 0.00 | 96 | 1013.1 |
| 20260510034048 | 62 | 0 | 0.0 | 0.0 | 0.00 | 0.00 | 0.00 | 96 | 1013.1 |
| 20260510033549 | 62 | 0 | 0.0 | 0.0 | 0.00 | 0.00 | 0.00 | 96 | 1013.0 |
| 20260510033112 | 62 | 0 | 0.0 | 0.0 | 0.00 | 0.00 | 0.00 | 96 | 1013.0 |
| 20260510032547 | 62 | 0 | 0.0 | 0.0 | 0.00 | 0.00 | 0.00 | 96 | 1012.9 |
| 20260510032047 | 62 | 0 | 0.0 | 0.0 | 0.00 | 0.00 | 0.00 | 96 | 1012.8 |
| 20260510031554 | 63 | 0 | 0.0 | 0.0 | 0.00 | 0.00 | 0.00 | 96 | 1012.8 |
| 20260510031048 | 63 | 0 | 0.0 | 0.0 | 0.00 | 0.00 | 0.00 | 96 | 1012.8 |
| 20260510030550 | 63 | 0 | 0.0 | 0.0 | 0.00 | 0.00 | 0.00 | 96 | 1012.8 |
| 20260510030057 | 63 | 0 | 0.0 | 0.0 | 0.00 | 0.00 | 0.00 | 95 | 1012.7 |
| 20260510025550 | 63 | 0 | 0.0 | 0.0 | 0.00 | 0.00 | 0.00 | 95 | 1012.7 |
| 20260510025048 | 63 | 0 | 0.0 | 0.0 | 0.00 | 0.00 | 0.00 | 95 | 1012.8 |
| 20260510024601 | 63 | 0 | 0.0 | 0.0 | 0.00 | 0.00 | 0.00 | 95 | 1012.6 |
| 20260510024050 | 63 | 0 | 0.0 | 0.0 | 0.00 | 0.00 | 0.00 | 95 | 1012.7 |
| 20260510023550 | 63 | 0 | 0.0 | 0.0 | 0.00 | 0.00 | 0.00 | 95 | 1012.8 |
| 20260510023056 | 64 | 0 | 0.0 | 0.0 | 0.00 | 0.00 | 0.00 | 94 | 1012.8 |
| 20260510022549 | 64 | 0 | 0.0 | 0.0 | 0.00 | 0.00 | 0.00 | 94 | 1012.7 |
| 20260510022048 | 64 | 0 | 0.0 | 0.0 | 0.00 | 0.00 | 0.00 | 94 | 1012.6 |
| 20260510021552 | 64 | 0 | 0.0 | 0.0 | 0.00 | 0.00 | 0.00 | 94 | 1012.7 |
| 20260510021047 | 64 | 0 | 0.0 | 0.0 | 0.00 | 0.00 | 0.00 | 94 | 1012.4 |
| 20260510020548 | 64 | 0 | 0.0 | 0.0 | 0.00 | 0.00 | 0.00 | 94 | 1012.5 |
| 20260510020057 | 64 | 0 | 0.0 | 0.0 | 0.00 | 0.00 | 0.00 | 94 | 1012.4 |
| 20260510015549 | 64 | 0 | 0.0 | 0.9 | 0.00 | 0.00 | 0.00 | 94 | 1012.7 |
| 20260510015047 | 64 | 0 | 0.0 | 0.9 | 0.00 | 0.00 | 0.00 | 95 | 1012.5 |
| 20260510014556 | 63 | 0 | 0.0 | 0.0 | 0.00 | 0.00 | 0.00 | 94 | 1012.5 |
| 20260510014048 | 63 | 0 | 0.0 | 0.0 | 0.00 | 0.00 | 0.00 | 94 | 1012.3 |
| 20260510013548 | 63 | 0 | 0.0 | 0.0 | 0.00 | 0.00 | 0.00 | 93 | 1012.3 |
| 20260510013053 | 63 | 0 | 0.0 | 0.0 | 0.00 | 0.00 | 0.00 | 93 | 1012.3 |
| 20260510012552 | 64 | 0 | 0.0 | 0.0 | 0.00 | 0.00 | 0.00 | 92 | 1012.1 |
| 20260510012049 | 64 | 0 | 0.0 | 0.0 | 0.00 | 0.00 | 0.00 | 91 | 1012.1 |
| 20260510011550 | 64 | 0 | 0.0 | 0.0 | 0.00 | 0.00 | 0.00 | 91 | 1012.0 |
| 20260510011047 | 64 | 0 | 0.0 | 0.0 | 0.00 | 0.00 | 0.00 | 90 | 1011.9 |
| 20260510010550 | 65 | 0 | 0.0 | 0.0 | 0.00 | 0.00 | 0.00 | 90 | 1011.9 |
| 20260510010049 | 65 | 0 | 0.0 | 0.0 | 0.00 | 0.00 | 0.00 | 89 | 1012.0 |
| 20260510005550 | 65 | 0 | 0.0 | 0.0 | 0.00 | 0.00 | 0.00 | 89 | 1011.8 |
| 20260510005047 | 66 | 0 | 0.0 | 0.0 | 0.00 | 0.00 | 0.00 | 88 | 1011.7 |
| 20260510004554 | 66 | 0 | 0.0 | 0.0 | 0.00 | 0.00 | 0.00 | 86 | 1011.6 |
| 20260510004048 | 66 | 0 | 0.0 | 0.0 | 0.00 | 0.00 | 0.00 | 86 | 1011.7 |
| 20260510003548 | 67 | 0 | 0.0 | 0.0 | 0.00 | 0.00 | 0.00 | 85 | 1011.7 |
| 20260510003103 | 67 | 0 | 0.0 | 0.0 | 0.00 | 0.00 | 0.00 | 85 | 1011.6 |
| 20260510002549 | 68 | 0 | 0.0 | 0.0 | 0.00 | 0.00 | 0.00 | 84 | 1011.6 |
| 20260510002047 | 68 | 0 | 0.0 | 0.0 | 0.00 | 0.00 | 0.00 | 84 | 1011.8 |
| 20260510001552 | 68 | 0 | 0.0 | 0.0 | 0.00 | 0.00 | 0.00 | 83 | 1011.9 |
| 20260510001047 | 69 | 0 | 0.0 | 0.0 | 0.00 | 0.00 | 0.00 | 82 | 1011.8 |
| 20260510000549 | 69 | 0 | 0.0 | 0.0 | 0.00 | 0.00 | 0.00 | 81 | 1011.6 |
| 20260510000057 | 70 | 0 | 0.0 | 0.0 | 0.00 | 0.00 | 0.00 | 80 | 1011.7 |
| 20260509235548 | 70 | 0 | 0.0 | 0.0 | 0.00 | 0.00 | 0.00 | 80 | 1011.6 |
| 20260509235048 | 70 | 0 | 0.0 | 0.9 | 0.00 | 0.00 | 0.00 | 79 | 1011.5 |
| 20260509234612 | 71 | 0 | 0.0 | 0.9 | 0.00 | 0.00 | 0.00 | 79 | 1011.4 |
| 20260509234051 | 71 | 0 | 0.0 | 0.9 | 0.00 | 0.00 | 0.00 | 78 | 1011.3 |
| 20260509233556 | 71 | 0 | 0.0 | 0.0 | 0.00 | 0.00 | 0.00 | 77 | 1011.0 |
| 20260509233053 | 71 | 0 | 0.0 | 0.0 | 0.00 | 0.00 | 0.00 | 77 | 1011.1 |
| 20260509232552 | 72 | 0 | 0.0 | 0.9 | 0.00 | 0.00 | 0.00 | 76 | 1011.1 |
| 20260509232052 | 72 | 0 | 0.0 | 0.9 | 0.00 | 0.00 | 0.00 | 76 | 1011.2 |
| 20260509231559 | 72 | 0 | 0.0 | 5.2 | 0.00 | 0.00 | 0.00 | 75 | 1011.0 |
| 20260509231051 | 72 | 263 | 0.9 | 7.8 | 0.00 | 0.00 | 0.00 | 75 | 1011.0 |
| 20260509230551 | 72 | 267 | 3.5 | 7.8 | 0.00 | 0.00 | 0.00 | 74 | 1010.9 |
| 20260509225554 | 73 | 235 | 0.9 | 7.0 | 0.00 | 0.00 | 0.00 | 73 | 1010.8 |
| 20260509225050 | 73 | 250 | 1.7 | 7.0 | 0.00 | 0.00 | 0.00 | 73 | 1010.7 |
| 20260509224559 | 73 | 248 | 0.9 | 3.5 | 0.00 | 0.00 | 0.00 | 72 | 1010.6 |
| 20260509224052 | 73 | 302 | 0.0 | 3.5 | 0.00 | 0.00 | 0.00 | 72 | 1010.6 |
| 20260509223551 | 73 | 233 | 1.7 | 5.2 | 0.00 | 0.00 | 0.00 | 73 | 1010.9 |
| 20260509223059 | 73 | 288 | 1.7 | 6.1 | 0.00 | 0.00 | 0.00 | 72 | 1010.8 |
| 20260509222548 | 74 | 0 | 1.7 | 6.1 | 0.00 | 0.00 | 0.00 | 71 | 1010.8 |
| 20260509222050 | 74 | 137 | 0.9 | 2.6 | 0.00 | 0.00 | 0.00 | 72 | 1010.8 |
| 20260509221550 | 73 | 0 | 0.9 | 4.3 | 0.00 | 0.00 | 0.00 | 73 | 1011.0 |
| 20260509221052 | 73 | 344 | 0.0 | 4.3 | 0.00 | 0.00 | 0.00 | 73 | 1011.1 |
| 20260509220552 | 73 | 0 | 0.0 | 5.2 | 0.00 | 0.00 | 0.00 | 74 | 1011.0 |
| 20260509220057 | 73 | 0 | 0.9 | 5.2 | 0.00 | 0.00 | 0.00 | 74 | 1010.8 |
| 20260509215552 | 72 | 0 | 0.0 | 3.5 | 0.00 | 0.00 | 0.00 | 75 | 1010.9 |
| 20260509215052 | 72 | 251 | 0.9 | 4.3 | 0.00 | 0.00 | 0.00 | 74 | 1011.0 |
| 20260509214555 | 72 | 241 | 1.7 | 4.3 | 0.00 | 0.00 | 0.00 | 74 | 1010.8 |
| 20260509214056 | 73 | 258 | 0.0 | 3.5 | 0.00 | 0.00 | 0.00 | 74 | 1010.8 |
| 20260509213552 | 72 | 0 | 0.0 | 2.6 | 0.00 | 0.00 | 0.00 | 74 | 1010.8 |
| 20260509213057 | 72 | 0 | 0.9 | 7.0 | 0.00 | 0.00 | 0.00 | 74 | 1010.8 |
| 20260509212551 | 73 | 286 | 2.6 | 7.0 | 0.00 | 0.00 | 0.00 | 73 | 1010.8 |
| 20260509212052 | 73 | 222 | 1.7 | 5.2 | 0.00 | 0.00 | 0.00 | 72 | 1010.6 |
| 20260509211553 | 74 | 244 | 0.0 | 3.5 | 0.00 | 0.00 | 0.00 | 71 | 1010.6 |
| 20260509211051 | 73 | 0 | 0.0 | 5.2 | 0.00 | 0.00 | 0.00 | 71 | 1010.6 |
| 20260509210552 | 73 | 0 | 0.9 | 5.2 | 0.00 | 0.00 | 0.00 | 72 | 1010.7 |
| 20260509210059 | 73 | 252 | 0.9 | 5.2 | 0.00 | 0.00 | 0.00 | 71 | 1010.7 |
| 20260509205551 | 72 | 0 | 0.0 | 6.1 | 0.00 | 0.00 | 0.00 | 73 | 1010.7 |
| 20260509205048 | 72 | 277 | 1.7 | 6.1 | 0.00 | 0.00 | 0.00 | 73 | 1010.6 |
| 20260509204556 | 72 | 0 | 1.7 | 5.2 | 0.00 | 0.00 | 0.00 | 73 | 1010.9 |
| 20260509204048 | 72 | 258 | 0.0 | 2.6 | 0.00 | 0.00 | 0.00 | 72 | 1010.9 |
| 20260509203547 | 72 | 251 | 0.9 | 2.6 | 0.00 | 0.00 | 0.00 | 72 | 1010.7 |
| 20260509203058 | 72 | 0 | 0.0 | 1.7 | 0.00 | 0.00 | 0.00 | 72 | 1010.7 |
| 20260509202548 | 72 | 241 | 0.0 | 1.7 | 0.00 | 0.00 | 0.00 | 72 | 1010.8 |
| 20260509202048 | 72 | 0 | 0.0 | 0.9 | 0.00 | 0.00 | 0.00 | 73 | 1010.8 |
| 20260509201553 | 71 | 0 | 0.0 | 3.5 | 0.00 | 0.00 | 0.00 | 73 | 1010.7 |
| 20260509201047 | 70 | 0 | 0.0 | 3.5 | 0.00 | 0.00 | 0.00 | 74 | 1010.8 |
| 20260509200547 | 70 | 278 | 0.0 | 3.5 | 0.00 | 0.00 | 0.00 | 73 | 1010.9 |
| 20260509200052 | 70 | 248 | 1.7 | 3.5 | 0.00 | 0.00 | 0.00 | 73 | 1011.0 |
| 20260509195551 | 70 | 0 | 1.7 | 7.0 | 0.00 | 0.00 | 0.00 | 73 | 1011.1 |
| 20260509195049 | 70 | 240 | 0.9 | 7.0 | 0.00 | 0.00 | 0.00 | 73 | 1011.2 |
| 20260509194552 | 71 | 279 | 0.9 | 6.1 | 0.00 | 0.00 | 0.00 | 72 | 1011.2 |
| 20260509194051 | 71 | 0 | 0.9 | 6.1 | 0.00 | 0.00 | 0.00 | 72 | 1011.2 |
| 20260509193548 | 71 | 0 | 0.9 | 6.1 | 0.00 | 0.00 | 0.00 | 72 | 1011.3 |
| 20260509193053 | 71 | 220 | 0.9 | 7.8 | 0.00 | 0.00 | 0.00 | 71 | 1011.3 |
| 20260509192548 | 71 | 275 | 1.7 | 7.8 | 0.00 | 0.00 | 0.00 | 70 | 1011.3 |
| 20260509192048 | 72 | 267 | 2.6 | 7.8 | 0.00 | 0.00 | 0.00 | 69 | 1011.5 |
| 20260509191552 | 72 | 213 | 1.7 | 7.8 | 0.00 | 0.00 | 0.00 | 67 | 1011.5 |
| 20260509191047 | 73 | 244 | 1.7 | 6.1 | 0.00 | 0.00 | 0.00 | 67 | 1011.4 |